{"data":{"norad_id":50832,"epoch":"2026-09-19T23:23:02.842944Z","epoch_age_seconds":93654,"freshness":"FRESH","line1":"1 50832U 22001AF  26262.97433846  .00012911  00000+0  76972-3 0  9992","line2":"2 50832  53.1727  25.5134 0001781 113.7942 246.3237 15.11500575259619","mean_motion":15.11500575,"eccentricity":0.0001781,"inclination_deg":53.1727,"raan_deg":25.5134,"arg_perigee_deg":113.7942,"mean_anomaly_deg":246.3237,"bstar":0.00076972,"rev_number":25961,"period_min":95.269563493219,"perigee_km":530.3923785361,"apogee_km":532.85363505052,"semimajor_km":6909.7600067933,"source":"CELESTRAK","updated_at":"2026-09-20T09:00:39.580208Z"}}